Location: Whipple Observatory
(31.6750°N, 110.9510°W)
Time: 03:57:40
(UTC-07:00)

ISS - Visible Passes

Search period start: 28 November 2023 00:00
Search period end: 08 December 2023 00:00
Orbit: 417 x 417 km, 51.6° (Epoch: 28 November)

Date Brightness Start Highest point End Pass type
(mag) Time Alt. Az. Time Alt. Az. Time Alt. Az.
02 Dec -1.4 18:52:24 10° NNW 18:53:04 14° N 18:53:04 14° N visible
03 Dec -1.9 18:04:35 10° N 18:06:29 14° NNE 18:07:15 13° NE visible
03 Dec -0.5 19:40:11 10° NW 19:40:13 10° NW 19:40:13 10° NW visible
04 Dec -3.8 18:51:36 10° NW 18:54:41 69° N 18:54:41 69° N visible
05 Dec -3.2 18:03:12 10° NNW 18:06:20 37° NE 18:09:27 10° ESE visible
05 Dec -0.6 19:40:57 10° W 19:42:37 14° WSW 19:42:37 14° WSW visible
06 Dec -1.6 18:51:27 10° WNW 18:54:19 27° SW 18:57:12 10° S visible
07 Dec -3.1 18:02:29 10° NW 18:05:45 58° SW 18:09:01 10° SSE visible
